Regional Weather Roundup
Issued by NWS Upton, NY

Current Version | Previous Version | Text Only | Print | Product List | Glossary On
Versions: 1 2 3 4 5 6 7 8 9 10 11 12 13 14 15 16 17 18 19 20 21 22 23 24 25 26 27 28 29 30 31
000
ASUS41 KOKX 251105
RWROKX

REGIONAL WEATHER ROUNDUP
NATIONAL WEATHER SERVICE NEW YORK NY
700 AM EDT THU AUG 25 2016

NOTE: "FAIR" INDICATES FEW OR NO CLOUDS BELOW 12,000 FEET WITH NO
SIGNIFICANT WEATHER AND/OR OBSTRUCTIONS TO VISIBILITY.

NYZ071-072-176-178-NJZ106-104-251200-
NEW YORK CITY METRO AREA

CITY           SKY/WX    TMP DP  RH WIND       PRES   REMARKS
Central Park     N/A     72  63  73 MISG        N/A
LaGuardia APRT MOCLDY    73  63  70 SW9       30.12S
Kennedy INTL   MOCLDY    71  67  87 SW8       30.14S
Newark/Liberty MOCLDY    69  63  81 SW7       30.13S
Bronx Bot Gard   N/A     72  61  68 W7        30.14R
Wall St Helipt SUNNY     72  64  78 SW6       30.14S
Teterboro      CLEAR     67  62  84 S5        30.12S
$$

NYZ177-179-078>081-251200-
LONG ISLAND NEW YORK

CITY           SKY/WX    TMP DP  RH WIND       PRES   REMARKS
Farmingdale    CLEAR     69  64  84 S5        30.14S
MacArthur/ISP  MOCLDY    69  64  84 SW6       30.14S
Shirley        CLEAR     69  65  86 SW3       30.15S
Riverhead      NOT AVBL
Westhampton    CLEAR     63  60  90 CALM      30.17R
Southampton      N/A     72  68  88 SW2       30.11F
Bridgehampton    N/A     66  64  94 CALM      30.14S
East Hampton   FAIR      68  66  94 S3        30.14F
Montauk          N/A     71  68  90 SW6       30.16R
$$

NYZ052-065-067-251200-
HUDSON VALLEY

CITY           SKY/WX    TMP DP  RH WIND       PRES   REMARKS
White Plains   CLEAR     66  62  87 CALM      30.13S
Newburgh       PTCLDY    63  63 100 CALM      30.13S
Montgomery     CLEAR     62  60  93 CALM      30.12R
Poughkeepsie   CLEAR     64  60  87 CALM      30.11R
Albany         CLOUDY    68  62  81 S9        30.05F
$$

NJZ001-105-106-008-010-013-015-019>022-104-251200-
NEW JERSEY

CITY           SKY/WX    TMP DP  RH WIND       PRES   REMARKS
Newark/Liberty MOCLDY    69  63  81 SW7       30.13S
Teterboro      CLEAR     67  62  84 S5        30.12S
Caldwell       CLEAR     67  63  87 VRB3      30.14R
Morristown     PTCLDY    61  61 100 CALM      30.14R
Somerville     CLEAR     60  58  92 CALM      30.12R FOG
Linden         FAIR      68  62  81 CALM      30.15R
Sussex         CLEAR     60  60 100 CALM      30.13R
Abdover          N/A     61  60  97 CALM      30.14R
Trenton        CLEAR     64  61  90 S3        30.13S
Millville      CLEAR     63  63 100 CALM      30.15R
Atlantic City  CLEAR     63  60  90 CALM      30.16R
Wrightstown    PTCLDY    63  61  94 S2        30.12S
Toms River     CLEAR     60  58  92 CALM      30.15S
Belmar         CLEAR     64  62  93 S5        30.16R
$$

PAZ047>061-062-071-251200-
EASTERN PENNSYLVANIA

CITY           SKY/WX    TMP DP  RH WIND       PRES   REMARKS
Philadelphia   MOCLDY    69  61  75 S6        30.13F
Allentown      CLEAR     64  60  87 CALM      30.13R
Scranton       CLEAR     69  62  78 CALM      30.10S
$$

CTZ002-004>006-009-010-012-RIZ004-006-007-MAZ004-011-015-251200-
SOUTHERN NEW ENGLAND
 IN CT

CITY           SKY/WX    TMP DP  RH WIND       PRES   REMARKS
Bradley INTL   MOCLDY    67  63  87 S8        30.12R
Hartford       CLEAR     70  65  84 S7        30.11F
Danbury        CLEAR     62  61  96 CALM      30.15R
Wtrbury/Oxford PTCLDY    64  57  77 SW5       30.15R
Bridgeport     CLEAR     73  65  75 SW8       30.13S
Meriden        PTCLDY    66  63  90 S5        30.13S
New Haven      PTCLDY    69  64  84 CALM      30.13S
Chester        FAIR      66  64  94 CALM      30.14F
Groton         CLEAR     72  66  81 SW9       30.13S
Wilimantic     CLEAR     62  61  96 CALM      30.14S

 IN RI

CITY           SKY/WX    TMP DP  RH WIND       PRES   REMARKS
Providence     PTCLDY    68  65  90 SW6       30.14R
Block Island   PTCLDY    70  68  93 SW8       30.15S
Westerly       CLEAR     71  66  84 SW5       30.15S
 IN MA

CITY           SKY/WX    TMP DP  RH WIND       PRES   REMARKS
Boston         PTCLDY    68  65  90 SW12      30.10S
Worcester      CLEAR     65  61  87 SW13      30.12F
Westfield      PTCLDY    62  61  96 S6        30.11R
Provincetown   SUNNY     68  66  93 S10       30.13S
Nantucket      MOSUNNY   69  66  90 S10       30.16F
$$

ANZ330-335-338-340-345-350-353-355-251200-
COASTAL MARINE OBSERVATIONS


STATION/POSITION TIME  SKY/WX   TEMP    WIND        PRES    VSBY  WAVE
                                AIR SEA DIR/SP/G                  HT/PER
                 (UTC)          (F)     (DEG/KT/KT) (MB)    (MI)  (FT/S)
NY HARB ENTRANCE 0950            72 74  240/ 14/ 16 1020.3          3/11
20S FIRE ISLAND  0950            74 75  240/ 14/ 16 1020.6          3/11
GREAT SOUTH BAY  1000            74 78  260/ 12/ 14   N/A
23 SSW MONTAUK P 0950            74 74  230/ 14/ 16 1021.1          3/10
15 E BARNEGAT LI 1000               75                N/A           3/11
HUDSON CANYON    0950            75 77              1021.5          3/11
KINGS POINT      1000            72 76              1020.0
EXECUTION ROCKS  1000            73     210/ 10/ 14   N/A
CENTRAL LI SOUND 1030            72 74  230/ 12/ 16   N/A           2/ 4
EASTERN LI SOUND 1000            72 70  230/ 10/ 12   N/A
ROBBINS REEF     1000            70     240/ 10/ 12 1019.7
$$


>>>>>>>>>>>>>>>>>>>>>>>>>>>> KEY <<<<<<<<<<<<<<<<<<<<<<<<<<<
>                                                          <
>     SKY/WX - Sky Condition/Present Weather               <
>     TMP    - Temperature in Fahrenheit                   <
>     DP     - Dew Point in Fahrenheit                     <
>     RH     - Relative Humidity in Percent                <
>     WIND   - Direction (from) and Speed in MPH           <
>     PRES   - Mean Sea Level Pressure (inches of Hg)      <
>     WCI    - Wind Chill Index                            <
>     VSB    - VISIBILITY IN MILES                         <
>     HX     - HEAT INDEX                                  <
>     TC     - TEMPERATURE IN CELSIUS                      <
>     VRB    - VARIABLE WIND DIRECTION                     <
>                                                          <
>>>>>>>>>>>>>>>>>>>>>>>>>>>> KEY <<<<<<<<<<<<<<<<<<<<<<<<<<<




USA.gov is the U.S. government's official web portal to all federal, state and local government web resources and services.